CAPE
223 197 56 59 129 273 529 659 834 1008 1189 1776 2036 2036 2156 2420 2560 2323 1985 1861 460 247 85 98 227 744 112 86 207 270 1 2 7
126 264 87 70 106 260 446 621 896 1187 1511 1704 1866 1900 2076 2364 2533 2382 1624 1447 1565 696 246 119 368 303 137 64 275 32 1 0 31
108 229 250 67 159 253 466 651 817 1098 1363 1666 1757 1790 1944 2076 2217 2440 2202 2123 1737 779 505 346 324 310 26 101 73 12 34 0 7
81 186 382 306 165 326 572 633 718 1023 1328 1552 1744 1742 1838 1871 1929 2082 2399 2299 2082 1596 994 576 457 432 92 174 24 22 56 20 0
13 97 360 523 505 511 602 777 732 852 1053 1260 1541 1715 1981 1892 1949 1992 2089 2539 2178 1835 1049 380 571 428 216 160 66 21 66 6 0
32 119 395 600 706 838 870 850 1051 1051 1261 1244 1229 1653 1688 1667 1813 2016 2024 2244 2077 1300 750 314 176 114 85 177 134 61 47 62 30
19 268 415 656 750 984 1134 1153 1444 1558 1412 1472 1509 1519 1818 1892 1921 1919 1978 2160 1873 805 381 24 0 27 33 67 142 97 74 107 86
38 362 303 648 886 1247 1598 1573 1737 1806 1750 1740 1739 1874 1926 2190 2347 2232 1932 1945 1430 639 269 1 0 1 0 1 67 25 136 110 10
5 451 400 740 1057 1303 1698 1750 1877 1956 2028 1909 2017 2134 2204 2302 2621 2545 2017 1924 1195 412 129 0 0 0 0 0 0 0 3 3 27
22 328 426 608 912 1244 1688 1819 2000 2009 2089 2037 2101 2299 2349 2453 2666 2560 2030 1934 1178 551 255 6 0 0 0 0 0 0 0 0 6
0 447 674 816 910 1210 1487 1583 1767 1747 1919 2067 2188 2404 2471 2536 2583 2364 1920 1583 1200 860 427 5 0 0 0 0 0 0 0 0 0
154 513 931 1020 1034 1322 1422 1270 1421 1591 1629 1845 1973 2139 2356 2396 2407 2262 1980 1393 862 704 461 23 0 0 21 7 8 20 32 43 77
62 385 901 1011 794 957 1176 1101 1228 1409 1316 1522 1782 1959 2307 2438 2463 2296 1937 1608 1069 621 269 95 5 44 43 189 126 28 65 44 136
411 550 750 864 947 1020 1069 949 1016 1236 1282 1539 1709 1941 2318 2591 2620 2315 1807 1509 1101 596 268 160 213 250 311 53 18 45 16 10 95
952 1150 1179 1200 1208 1173 1208 1307 1546 1651 1726 1983 2185 2389 2451 2655 2217 1912 1592 1101 708 412 407 596 498 366 467 334 17 22 0 0 10
544 559 458 587 822 1161 1442 1565 1521 1579 1604 1662 1998 2113 2399 1746 1660 1313 1035 682 483 341 340 370 411 396 91 0 15 49 0 0 0
660 613 595 663 751 728 763 1224 1559 1672 1735 1827 1998 1651 1288 1156 1001 765 585 398 331 408 381 354 592 232 64 8 16 68 80 0 0
713 735 782 698 594 572 831 1276 1405 1571 1483 1632 1791 1423 1364 1144 797 866 720 60 257 419 314 122 334 85 1 0 6 102 200 124 118
333 830 1086 1120 920 975 1259 1504 1625 1595 1581 1720 1523 1220 1124 1008 824 812 585 186 5 0 0 0 0 0 7 6 18 13 0 0 0
0 0 58 980 1070 1278 1363 1397 1386 1312 1140 1147 1056 820 750 337 366 419 230 65 1 0 0 0 0 0 0 0 0 0 0 0 0
CIN
-66 -96 -140 -170 -196 -213 -184 -189 -178 -157 -149 -109 -82 -67 -47 -25 -11 -2 -10 -11 -104 -141 -187 -209 -172 -94 -216 -230 -140 -108 -28 -29 -22
-48 -72 -126 -161 -183 -197 -184 -178 -181 -183 -157 -142 -110 -99 -78 -47 -21 -15 -24 -30 -52 -103 -152 -161 -162 -199 -202 -233 -145 -152 -18 0 -147
-39 -85 -95 -123 -154 -183 -186 -172 -164 -168 -162 -138 -116 -111 -113 -83 -54 -35 -35 -32 -66 -142 -147 -196 -171 -169 -292 -220 -213 -260 -201 0 -109
-25 -54 -95 -107 -129 -142 -183 -150 -140 -148 -150 -141 -118 -116 -132 -117 -99 -73 -50 -53 -84 -98 -161 -189 -196 -185 -227 -232 -257 -190 -155 -124 0
-11 -40 -81 -117 -119 -150 -161 -148 -126 -116 -143 -138 -140 -137 -142 -129 -108 -100 -80 -68 -78 -94 -154 -247 -131 -146 -157 -166 -205 -199 -137 -178 0
-38 -87 -101 -129 -141 -155 -158 -153 -148 -120 -124 -124 -127 -120 -140 -139 -144 -118 -111 -102 -78 -132 -161 -210 -254 -297 -259 -129 -136 -135 -88 -75 -97
-41 -106 -142 -163 -172 -170 -168 -154 -146 -129 -122 -113 -100 -99 -121 -139 -162 -150 -118 -92 -97 -240 -267 -354 0 -200 -174 -123 -106 -48 -87 -57 -54
-27 -98 -163 -218 -213 -197 -200 -189 -157 -168 -146 -123 -97 -98 -115 -124 -94 -83 -99 -84 -171 -303 -358 -91 0 -88 -41 -39 -61 -84 -55 -49 -70
-14 -88 -155 -196 -243 -228 -222 -217 -220 -186 -198 -174 -164 -150 -142 -90 -58 -76 -111 -92 -190 -333 -455 0 0 0 0 0 0 0 -146 -68 -59
-24 -64 -98 -168 -219 -212 -213 -224 -234 -211 -236 -221 -202 -201 -167 -130 -86 -92 -147 -137 -213 -274 -366 -446 0 0 0 0 0 0 -23 -23 -70
0 -64 -94 -169 -182 -193 -231 -232 -232 -242 -279 -283 -247 -230 -201 -169 -129 -123 -177 -231 -271 -258 -353 -156 0 0 0 0 0 0 0 0 0
-90 -76 -103 -152 -182 -235 -300 -271 -257 -269 -298 -307 -290 -262 -231 -216 -194 -176 -195 -277 -359 -319 -326 -492 0 0 -251 -199 -77 -50 -69 -71 -47
-221 -160 -197 -254 -269 -323 -342 -306 -316 -333 -294 -284 -258 -237 -211 -191 -160 -160 -204 -223 -246 -296 -384 -406 -424 -254 -137 -22 -48 -39 -61 -125 -27
-301 -278 -298 -331 -376 -342 -374 -382 -352 -305 -275 -230 -203 -194 -181 -177 -144 -146 -175 -168 -175 -210 -290 -275 -162 -70 -4 -89 -75 -48 -82 -67 -34
-401 -372 -345 -347 -363 -406 -398 -350 -290 -234 -194 -156 -156 -152 -155 -131 -158 -155 -158 -226 -237 -236 -160 -63 -44 -49 -5 -1 -73 -77 0 0 -144
-418 -418 -408 -410 -400 -387 -331 -269 -241 -184 -201 -213 -191 -175 -128 -210 -188 -196 -221 -252 -221 -193 -125 -76 -31 -21 -65 0 -50 -63 0 0 -20
-402 -410 -384 -363 -328 -343 -363 -311 -266 -244 -237 -228 -188 -221 -271 -245 -228 -245 -261 -225 -163 -96 -52 -26 0 -8 -50 -57 -36 -36 -68 0 -29
-349 -331 -303 -311 -317 -319 -324 -288 -275 -287 -277 -228 -173 -191 -166 -164 -198 -139 -112 -177 -48 -38 -14 -6 -1 -17 -12 0 -66 -36 -17 -35 -37
-349 -239 -157 -157 -229 -234 -236 -227 -200 -181 -155 -98 -92 -104 -86 -68 -88 -58 -56 -96 -134 0 0 0 0 0 -88 -85 -24 -140 0 0 0
0 0 -389 -134 -138 -123 -111 -119 -124 -111 -130 -120 -101 -114 -92 -174 -105 -42 -55 -84 -13 0 0 0 0 0 0 0 0 0 0 0 0
Wind_Speed
14 23 22 23 24 24 23 23 23 20 17 18 15 13 11 10 12 11 9 7 5 6 6 6 7 6 7 7 9 10 11 11 13
13 20 22 21 22 23 22 25 25 23 21 18 17 14 13 15 12 13 8 6 6 2 3 6 5 5 7 8 7 9 10 9 12
13 15 19 23 23 24 24 25 26 26 27 26 21 21 20 18 19 18 16 12 9 7 4 2 2 4 5 7 9 8 7 9 10
5 7 14 20 24 23 21 23 26 26 28 28 28 27 26 23 18 17 16 15 12 7 3 2 2 3 6 7 9 9 8 10 12
21 13 7 12 18 21 20 23 25 26 27 31 30 26 23 22 20 20 19 16 15 8 6 3 5 9 9 11 12 9 8 8 11
26 23 13 9 13 21 20 23 25 28 26 26 24 22 21 21 19 17 17 16 13 10 9 7 5 6 8 12 13 13 11 9 9
32 25 19 13 12 18 17 19 24 25 22 21 21 18 17 16 17 16 15 15 14 13 13 11 8 6 13 19 20 16 15 10 10
32 31 19 12 14 16 13 14 18 18 18 16 15 14 14 14 12 12 13 14 15 15 14 14 12 9 10 18 22 14 10 14 10
37 33 16 10 12 13 13 13 13 12 13 13 11 12 13 11 9 9 11 12 13 13 15 16 16 14 13 10 12 14 12 13 13
38 37 16 11 13 15 12 11 11 11 10 9 9 8 9 10 7 7 8 9 9 10 13 15 17 16 14 14 13 12 12 12 11
41 36 22 17 16 15 12 10 10 9 8 10 9 7 6 5 5 5 6 6 7 9 10 13 14 13 13 12 14 13 12 12 12
36 34 23 21 15 12 11 11 9 9 9 8 7 5 5 4 4 4 4 7 7 9 9 10 11 11 12 14 12 11 10 11 13
31 27 17 15 13 12 11 10 10 9 8 5 4 3 4 4 5 5 7 8 9 10 8 8 8 9 10 9 8 10 13 10 13
24 18 15 10 9 10 11 9 9 9 6 6 3 4 6 7 6 8 11 12 11 10 8 8 8 8 7 6 7 9 8 8 12
13 10 8 7 5 5 5 6 7 7 7 6 6 8 8 8 10 11 12 12 10 9 9 6 6 6 5 6 6 6 7 7 13
7 6 5 3 2 2 2 6 6 7 7 8 9 10 10 12 13 15 14 13 11 10 6 6 9 8 9 8 8 8 8 12 13
4 3 2 1 2 3 4 7 8 9 11 13 13 13 13 13 13 14 13 13 11 9 10 9 9 8 7 8 7 9 12 10 9
2 3 6 6 6 6 8 10 11 11 12 12 13 13 13 13 13 12 11 13 13 11 10 12 9 9 7 10 10 12 10 9 7
8 6 11 11 11 11 11 11 12 12 12 12 11 10 11 11 10 10 9 9 11 15 14 11 11 10 10 12 14 9 8 10 13
10 10 14 15 16 14 12 12 12 11 10 10 9 11 11 12 11 9 10 9 9 11 14 13 13 12 11 10 9 10 11 12 13
Wind_Direction
174 179 180 180 178 178 177 176 176 177 180 180 182 183 183 179 172 165 161 146 120 109 87 75 62 66 44 39 32 24 18 15 8
170 179 183 180 180 180 178 178 178 178 179 184 184 187 185 179 176 175 170 161 150 91 14 11 23 32 14 10 23 15 14 16 5
173 177 180 184 184 182 180 181 181 182 185 185 184 183 183 182 180 179 180 175 175 171 145 135 63 353 6 351 349 1 9 7 4
255 184 187 188 188 185 183 182 183 184 185 185 185 185 187 186 185 186 186 189 191 200 219 215 197 326 334 342 334 339 347 347 348
284 287 227 198 188 186 187 185 184 184 184 186 188 187 188 190 190 191 195 200 199 209 217 234 297 315 322 322 322 322 328 334 338
284 286 277 242 198 185 189 187 186 185 185 186 186 187 190 194 199 204 209 213 217 227 225 264 225 287 308 312 316 309 315 321 327
278 280 283 270 221 186 190 188 186 187 188 188 190 192 196 204 208 214 221 219 222 233 236 237 236 252 310 311 305 300 304 305 310
277 268 282 269 195 186 194 190 189 195 194 194 196 203 208 208 218 220 224 226 228 235 235 238 236 245 298 316 291 289 281 299 301
267 269 276 256 218 208 200 195 195 203 202 197 206 210 207 212 219 228 235 238 240 244 241 238 240 255 276 266 240 236 250 282 296
264 261 267 242 213 211 220 213 204 210 212 207 207 219 206 201 224 249 253 246 250 255 245 243 244 253 262 257 261 257 255 262 277
258 258 265 252 243 235 236 228 222 225 221 185 189 197 220 223 233 252 272 257 260 271 271 261 255 266 273 269 267 259 256 263 272
258 256 260 251 238 231 231 229 221 223 236 181 188 203 256 221 227 251 276 282 280 287 289 284 269 265 274 282 272 252 253 255 272
258 255 249 245 235 227 225 228 224 228 227 226 218 232 288 296 301 299 300 293 297 296 290 296 278 274 282 276 250 283 279 246 284
252 247 240 229 217 221 229 227 228 237 241 259 255 294 306 307 305 311 314 317 315 307 302 297 285 287 290 245 280 294 284 260 296
236 224 215 216 199 183 199 224 237 253 268 285 303 309 313 312 313 322 324 318 317 309 305 293 293 295 274 276 288 282 269 274 295
210 194 185 205 202 166 250 258 267 281 291 300 306 312 315 315 314 319 326 319 314 314 305 297 304 303 293 291 285 299 299 310 312
196 212 221 217 242 269 288 298 312 302 307 307 308 311 314 316 317 321 326 321 320 319 312 306 308 306 308 313 314 323 325 323 320
258 271 290 297 295 305 307 309 313 322 318 319 315 316 317 319 321 327 330 334 332 328 330 326 321 323 321 321 315 321 324 328 331
267 292 292 295 295 300 309 317 323 328 327 324 331 333 329 334 340 341 345 339 336 338 341 338 339 333 326 330 327 334 332 330 333
308 324 295 292 294 304 319 319 326 340 339 332 336 338 332 336 341 348 344 338 333 329 335 339 335 333 336 340 345 342 338 338 339